Location: Blanot
(47.1713°N, 4.2340°E)
Time: 07:55:31
(UTC+00:00)

Cosmos 1242 Rocket - Pass Details

Date: 14 July 2020
Orbit: 448 x 487 km, 81.2° (Epoch: 14 August)

Event Time Altitude Azimuth Distance (km) Brightness Sun altitude
Rises 03:16:29 0° 339° (NNW) 2,466 6.5 -6.9°
Reaches altitude 10° 03:18:42 10° 330° (NNW) 1,590 5.3 -6.6°
Maximum altitude 03:21:48 31° 266° (W) 813 3.3 -6.2°
Drops below altitude 10° 03:24:54 10° 202° (SSW) 1,587 4.6 -5.8°
Enters shadow 03:26:32 - 194° (SSW) 2,229 5.4 -5.6°
